Friday, November 24, 2017, 5:35 AM GMT
Back to Local

CWRK, Bancroft Automatic Weather Reporting System

Location: , , Canada Lat: 45.067
Local Time: 5:35 AM GMT ( 5:35 GMT) Lon: -77.867
Time Zone: GMT Elev: 1085 ft

Show me the last for .
Show Coded

Time T Td Feel RH Dir Speed Gust Alt SLP Vis Weather Sky Remarks
2017-11-24 05:00 31 30 26 95 210° 6 - - 29.86 0 None
2017-11-24 04:00 31 28 27 86 210° 5 - - 29.86 0 None
2017-11-24 03:00 31 28 26 87 220° 6 - - 29.86 0 None
2017-11-24 02:00 33 28 27 80 220° 6 - - 29.86 0 None
2017-11-24 01:00 31 26 26 80 210° 6 - - 29.86 0 None
2017-11-24 00:00 32 24 26 73 220° 6 - - 29.87 0 None
2017-11-23 23:00 32 24 26 71 220° 6 - - 29.87 0 None
2017-11-23 22:00 31 23 26 72 210° 5 - - 29.87 0 None
2017-11-23 21:00 31 23 27 70 210° 5 - - 29.88 0 None
2017-11-23 20:00 32 23 26 68 220° 6 - - 29.89 0 None
2017-11-23 19:00 31 22 26 67 210° 6 - - 29.90 0 None
2017-11-23 18:00 30 22 25 70 210° 5 - - 29.93 0 None
2017-11-23 17:00 28 22 22 75 200° 6 - - 29.96 0 None
2017-11-23 16:00 27 21 20 77 200° 6 - - 30.00 0 None
2017-11-23 15:00 24 19 19 80 190° 5 - - 30.03 0 None
2017-11-23 14:00 24 18 17 78 200° 6 - - 30.04 0 None
2017-11-23 13:00 21 17 14 85 200° 5 - - 30.06 0 None
2017-11-23 12:00 19 16 14 87 190° 3 - - 30.07 0 None
2017-11-23 11:00 19 15 - 84 170° 2 - - 30.10 0 None
2017-11-23 10:00 18 14 - 85 170° 2 - - 30.11 0 None
2017-11-23 09:00 16 13 - 90 130° 1 - - 30.13 0 None
2017-11-23 08:00 12 11 - 95 - Calm - - 30.14 0 None
2017-11-23 07:00 13 8 - 81 - Calm - - 30.14 0 None
2017-11-23 06:00 12 9 - 88 300° 2 - - 30.14 0 None

Support USWX by starting your Amazon purchase here.